Powrót do katalogu

STARLINK-34804

AktywnyŁącznośćVLEO
NORAD 65026·PAYLOAD·🇺🇸 United States

Wystrzelony Jul 30, 2025 z Cape Canaveral Space Force Station

Loading…

Następne Przeloty (najbliższe 24 godziny)

TLE

ŚwieżeSource: CelesTrak SupGP

Epoka: Sep 14, 2026, 15:14 UTC

1 65026C 25161M   26257.63520833  .00041068  00000+0  12131-2 0  2571
2 65026  53.1575 135.0311 0001349  96.6346 129.7822 15.34376125    11

Śledź STARLINK-34804 w czasie rzeczywistym z AllMySat

Download on the App Store